Simultaneous Nadir Overpasses (SNOs) Predictions

Prediction of SNOs between FY3D and AQUA Satellite Orbit:

Table of predicted SNOs for the next 14.0 days since TLE Epoch: 10/19/2019
Index Date (FY3D) Time (FY3D) Lat,Lon (FY3D) SZA (FY3D ) Date (AQUA) Time (AQUA) Lat,Lon (AQUA) SZA (AQUA ) Distance(km) Time Diff (sec)
1 10/21/2019 05:52:30 -68.41, 136.80 65.75 10/21/2019 05:53:04 -68.41, 136.83 65.81 1.57 34
2 10/21/2019 06:42:14 71.50, -51.18 111.25 10/21/2019 06:41:32 71.51, -51.14 111.28 1.26 42
3 10/23/2019 22:08:50 -68.73,-106.89 65.19 10/23/2019 22:09:27 -68.73,-106.90 65.23 0.56 37
4 10/23/2019 22:58:36 71.71, 65.08 111.93 10/23/2019 22:57:57 71.70, 65.06 111.98 0.76 39
5 10/26/2019 14:25:27 -68.09, 8.17 63.72 10/26/2019 14:26:06 -68.09, 8.21 63.79 1.88 39
6 10/26/2019 15:15:11 71.18,-179.95 113.31 10/26/2019 15:14:34 71.19,-179.90 113.34 2.21 37
7 10/29/2019 06:41:44 -68.56, 124.67 63.34 10/29/2019 06:42:26 -68.56, 124.65 63.38 0.90 42
8 10/29/2019 07:31:30 71.54, -63.44 113.81 10/29/2019 07:30:56 71.54, -63.45 113.85 0.47 34
9 10/31/2019 22:58:19 -68.07,-120.06 62.05 10/31/2019 22:59:03 -68.08,-120.05 62.12 0.85 44




NCC Satellite Simultaneous Nadir Overpasses (SNOs) Prediction Service
